User: anonymous   Login
Location: Caltech
(34.1382°N, 118.1253°W)
Time: 03:54:05
(UTC-07:00)
Language:

Cosmos 2251 Rocket - Orbit

View from above orbital plane
View from above orbital plane
View from above satellite
View from above satellite

Ground track
Ground track

The orbit data is extracted from the following two-line orbital elements,

1 22676U 93036B   17142.80147372 +.00000025 +00000-0 +18336-4 0  9993
2 22676 074.0430 228.2977 0019953 262.4706 097.4179 14.33918608251709
Epoch (UTC): 22 May 2017 19:14:07
Eccentricity: 0.0019953
inclination: 74.0430°
perigee height: 764 km
apogee height: 793 km
right ascension of ascending node: 228.2977°
argument of perigee: 262.4706°
revolutions per day: 14.33918608
mean anomaly at epoch: 97.4179°
orbit number at epoch: 25170

The dashed part of the orbit path shows where the satellite is in the earth's shadow,  

DLR